ONEWEB-0273 (48991 NORAD) Tracking and Keplerian Element Data

This shows tracking and keplerian element data for the satellite.

Feedback or suggestion? Click here.




ElementValue
Catalog48991
NameONEWEB-0273
Epoch Orbit567
Epoch Day211.25001157
Epoch Year2021
RAAN227.4275
Inclination87.441
Eccentricity0.001223
Argument of Perigee157.9773
Mean Anonmoly58.3017
Mean Motion14.9522816
Decay Rate-0.01442809
L11 48991U 21060AA 21211.25001157 -.01442809 00000-0 -14357+0 0 9997
L22 48991 87.4410 227.4275 0012230 157.9773 58.3017 14.95228160 5673

Live tracking and technical data element details for ONEWEB-0273 (NORAD 48991). ONEWEB-0273 can be tracked NOW for your location showing map with azimuth and elevation plus other details from your city location.

Track the satellite on the map from your city or location and see movement details for azimuth, elevation, latitude, longitude, range, height, and movement on the map or in text.







IsCatalogInMostPopularTable: catalog: 48991, numindb: 2
Update: records affected: 1



GetName: 48991 ONEWEB-0273

Hit Count: updated at: Sat, 31 Jul 2021 14:39:08 GMT